This demonstration page uses our WeatherBlox Daily Observations layout. Learn more.

39.92423, -83.80882

Hourly Observations for July 9, 2018

Temp ( °F °C ) Dew Point ( °F °C ) Humidity (%) Winds ( mph kmh ) Pressure ( in mb ) Visibility ( mi km ) Precip ( " mm )
12:56 am 00:56 Clear 66 18.9 59 15 78 78 S 6 9 30.25 1025 10 16.0934 0 0
1:56 am 01:56 Clear 63 17.2 59 15 87 87 SE 6 9 30.26 1025 10 16.0934 0 0
2:56 am 02:56 Clear 64 17.8 60 15.6 87 87 Calm 30.26 1025 10 16.0934 0 0
3:56 am 03:56 Clear 61 16.1 59 15 93 93 ESE 3 6 30.26 1025 10 16.0934 0 0
4:56 am 04:56 Clear 62 16.7 59 15 90 90 Calm 30.26 1025 10 16.0934 0 0
5:56 am 05:56 Clear 61 16.1 59 15 93 93 E 3 6 30.26 1025 10 16.0934 0 0
6:56 am 06:56 Sunny 62 16.7 59 15 90 90 Calm 30.25 1024 10 16.0934 0 0
7:56 am 07:56 Sunny 67 19.4 63 17.2 87 87 Calm 30.25 1025 10 16.0934 0 0
8:56 am 08:56 Sunny 73 22.8 65 18.3 76 76 SW 6 9 30.26 1025 10 16.0934 0 0
9:56 am 09:56 Sunny 78 25.6 67 19.4 69 69 W 8 13 30.26 1025 10 16.0934 0 0
10:56 am 10:56 Sunny 83 28.3 68 20 61 61 W 9 15 30.25 1025 10 16.0934 0 0
11:56 am 11:56 Sunny 83 28.3 67 19.4 59 59 W 10 17 30.25 1024 10 16.0934 0 0
12:56 pm 12:56 Sunny 85 29.4 67 19.4 55 55 NW 8 13 30.24 1024 10 16.0934 0 0
1:56 pm 13:56 Sunny 87 30.6 66 18.9 50 50 WSW 6 9 30.21 1023 10 16.0934 0 0
2:56 pm 14:56 Sunny 87 30.6 67 19.4 51 51 W 6 9 30.2 1023 10 16.0934 0 0
3:56 pm 15:56 Sunny 88 31.1 66 18.9 48 48 NNW 9 15 30.19 1022 10 16.0934 0 0
4:56 pm 16:56 Sunny 88 31.1 65 18.3 46 46 WNW 13 20 30.18 1022 10 16.0934 0 0
5:56 pm 17:56 Sunny 88 31.1 61 16.1 40 40 WNW 9 15 30.16 1022 10 16.0934 0 0
6:56 pm 18:56 Sunny 87 30.6 64 17.8 46 46 NW 8 13 30.15 1021 10 16.0934 0 0
7:56 pm 19:56 Sunny 85 29.4 66 18.9 53 53 NW 6 9 30.15 1021 10 16.0934 0 0
8:56 pm 20:56 Sunny 80 26.7 67 19.4 64 64 WNW 6 9 30.15 1021 10 16.0934 0 0
9:56 pm 21:56 Clear 78 25.6 67 19.4 69 69 WSW 3 6 30.14 1021 10 16.0934 0 0
10:56 pm 22:56 Clear 73 22.8 67 19.4 81 81 WSW 5 7 30.15 1021 10 16.0934 0 0
11:56 pm 23:56 Clear 70 21.1 67 19.4 90 90 Calm 30.15 1021 10 16.0934 0 0

Powered by AerisWeather